YO6IKB-10 Weather Reports


time (UTC)temp
C
wind
direction
speed
KPH
gust
KPH
rain 1hr
cm
rain 24hr
cm
rain mn
cm
humidity
%
barometer
mb
20260505130253 26 22 0.0 8.0 0.00 0.00 0.00 31 1010.2
20260505124753 25 292 8.0 9.7 0.00 0.00 0.00 32 1010.4
20260505124252 26 0 0.0 14.5 0.00 0.00 0.00 31 1010.4
20260505123752 26 292 0.0 14.5 0.00 0.00 0.00 32 1010.5
20260505123252 26 292 0.0 6.4 0.00 0.00 0.00 33 1010.6
20260505122751 26 292 3.2 8.0 0.00 0.00 0.00 34 1010.6
20260505122251 26 45 0.0 6.4 0.00 0.00 0.00 32 1010.7
20260505121751 26 0 1.6 8.0 0.00 0.00 0.00 32 1010.7
20260505121251 26 292 8.0 8.0 0.00 0.00 0.00 31 1010.8
20260505120750 27 315 0.0 9.7 0.00 0.00 0.00 33 1010.8
20260505120250 26 292 3.2 6.4 0.00 0.00 0.00 34 1010.9
20260505115750 26 292 0.0 6.4 0.00 0.00 0.00 32 1011.0
20260505115249 26 292 4.8 9.7 0.00 0.00 0.00 34 1011.1
20260505114749 25 292 1.6 3.2 0.00 0.00 0.00 34 1011.2
20260505114249 25 337 0.0 6.4 0.00 0.00 0.00 33 1011.2
20260505113749 26 45 0.0 8.0 0.00 0.00 0.00 31 1011.4
20260505113248 27 0 6.4 9.7 0.00 0.00 0.00 34 1011.3
20260505112748 26 292 1.6 9.7 0.00 0.00 0.00 36 1011.5
20260505112248 26 315 9.7 9.7 0.00 0.00 0.00 34 1011.5
20260505111747 25 315 1.6 9.7 0.00 0.00 0.00 34 1011.5
20260505111247 26 337 3.2 11.3 0.00 0.00 0.00 32 1011.5
20260505110747 26 45 0.0 11.3 0.00 0.00 0.00 34 1011.6
20260505110246 26 202 0.0 14.5 0.00 0.00 0.00 36 1011.6
20260505101744 26 292 3.2 12.9 0.00 0.00 0.00 40 1012.1
20260505101244 25 292 0.0 9.7 0.00 0.00 0.00 40 1012.1
20260505100743 25 292 3.2 6.4 0.00 0.00 0.00 38 1012.1
20260505100243 25 292 0.0 14.5 0.00 0.00 0.00 41 1012.2
20260505095743 25 225 9.7 9.7 0.00 0.00 0.00 39 1012.3
20260505095242 26 337 3.2 6.4 0.00 0.00 0.00 39 1012.3
20260505094742 26 247 4.8 9.7 0.00 0.00 0.00 41 1012.5
20260505094242 25 292 0.0 3.2 0.00 0.00 0.00 41 1012.4
20260505093742 25 292 0.0 6.4 0.00 0.00 0.00 41 1012.5
20260505093241 25 315 0.0 6.4 0.00 0.00 0.00 40 1012.6
20260505092741 25 292 0.0 14.5 0.00 0.00 0.00 42 1012.6
20260505092241 25 292 6.4 6.4 0.00 0.00 0.00 42 1012.7
20260505091740 25 247 6.4 6.4 0.00 0.00 0.00 42 1012.7
20260505091240 25 202 0.0 11.3 0.00 0.00 0.00 43 1012.8
20260505090740 24 247 0.0 6.4 0.00 0.00 0.00 43 1012.9
20260505090239 24 292 0.0 6.4 0.00 0.00 0.00 44 1012.9
20260505085739 23 315 0.0 16.1 0.00 0.00 0.00 42 1012.9
20260505085239 24 337 3.2 8.0 0.00 0.00 0.00 42 1012.9
20260505084739 23 247 1.6 3.2 0.00 0.00 0.00 44 1013.0
20260505084238 24 292 0.0 6.4 0.00 0.00 0.00 42 1013.0
20260505083738 24 292 1.6 12.9 0.00 0.00 0.00 43 1013.1
20260505083238 24 315 4.8 11.3 0.00 0.00 0.00 44 1013.1
20260505082737 23 315 0.0 9.7 0.00 0.00 0.00 43 1013.1
20260505082237 24 247 0.0 11.3 0.00 0.00 0.00 43 1013.2
20260505081737 23 292 0.0 3.2 0.00 0.00 0.00 43 1013.3
20260505081237 23 292 0.0 6.4 0.00 0.00 0.00 44 1013.3
20260505080736 23 247 0.0 6.4 0.00 0.00 0.00 44 1013.2
20260505080236 22 315 0.0 4.8 0.00 0.00 0.00 46 1013.3
20260505075736 21 315 0.0 6.4 0.00 0.00 0.00 46 1013.4
20260505075235 20 292 6.4 6.4 0.00 0.00 0.00 48 1013.3
20260505074735 20 22 0.0 3.2 0.00 0.00 0.00 49 1013.4
20260505074235 20 22 3.2 3.2 0.00 0.00 0.00 50 1013.5
20260505073734 20 22 1.6 3.2 0.00 0.00 0.00 50 1013.5
20260505073234 19 45 0.0 3.2 0.00 0.00 0.00 51 1013.5
20260505072734 19 0 1.6 3.2 0.00 0.00 0.00 52 1013.5
20260505072234 18 22 0.0 1.6 0.00 0.00 0.00 54 1013.6
20260505071733 18 45 0.0 3.2 0.00 0.00 0.00 55 1013.6
20260505071233 17 22 0.0 3.2 0.00 0.00 0.00 57 1013.6
20260505070733 17 45 1.6 3.2 0.00 0.00 0.00 57 1013.7
20260505070232 17 45 0.0 4.8 0.00 0.00 0.00 58 1013.6
20260505065732 16 45 0.0 3.2 0.00 0.00 0.00 59 1013.6
20260505065232 16 45 0.0 4.8 0.00 0.00 0.00 58 1013.7
20260505064732 16 45 0.0 3.2 0.00 0.00 0.00 59 1013.8
20260505064231 16 45 0.0 3.2 0.00 0.00 0.00 60 1013.7
20260505063731 16 45 1.6 1.6 0.00 0.00 0.00 60 1013.8
20260505063231 16 45 0.0 3.2 0.00 0.00 0.00 59 1013.8
20260505062730 16 45 0.0 4.8 0.00 0.00 0.00 59 1013.8
20260505062230 16 45 0.0 3.2 0.00 0.00 0.00 59 1013.7
20260505061730 16 45 0.0 1.6 0.00 0.00 0.00 59 1013.7
20260505061230 16 45 0.0 3.2 0.00 0.00 0.00 58 1013.7
20260505060729 16 45 0.0 3.2 0.00 0.00 0.00 58 1013.8
20260505060229 16 45 0.0 1.6 0.00 0.00 0.00 59 1013.9
20260505055729 16 45 0.0 3.2 0.00 0.00 0.00 59 1013.9
20260505054728 16 45 0.0 1.6 0.00 0.00 0.00 61 1013.7
20260505054228 15 45 1.6 1.6 0.00 0.00 0.00 63 1013.7
20260505053727 14 45 0.0 1.6 0.00 0.00 0.00 64 1013.8
20260505053227 13 45 0.0 0.0 0.00 0.00 0.00 65 1013.8
20260505052727 12 45 0.0 0.0 0.00 0.00 0.00 66 1013.8
20260505052227 12 45 0.0 3.2 0.00 0.00 0.00 67 1013.8
20260505051726 12 45 0.0 6.4 0.00 0.00 0.00 67 1013.7
20260505051226 12 67 0.0 3.2 0.00 0.00 0.00 68 1013.7
20260505050726 11 22 0.0 0.0 0.00 0.00 0.00 69 1013.6
20260505050225 11 22 0.0 1.6 0.00 0.00 0.00 70 1013.6
20260505041723 8 45 0.0 3.2 0.00 0.00 0.00 77 1013.5
20260505041222 8 67 0.0 0.0 0.00 0.00 0.00 77 1013.5
20260505040722 8 45 0.0 3.2 0.00 0.00 0.00 79 1013.4
20260505040222 7 22 1.6 1.6 0.00 0.00 0.00 80 1013.3
20260505035721 7 0 0.0 0.0 0.00 0.00 0.00 80 1013.3
20260505035221 7 0 0.0 0.0 0.00 0.00 0.00 80 1013.2
20260505034721 7 0 0.0 1.6 0.00 0.00 0.00 80 1013.2
20260505034221 7 337 0.0 3.2 0.00 0.00 0.00 80 1013.2
20260505033720 7 337 0.0 3.2 0.00 0.00 0.00 79 1013.2
20260505033220 7 22 0.0 0.0 0.00 0.00 0.00 79 1013.1
20260505032720 7 22 0.0 0.0 0.00 0.00 0.00 79 1013.2
20260505032220 7 22 0.0 0.0 0.00 0.00 0.00 79 1013.1
20260505031719 7 22 0.0 0.0 0.00 0.00 0.00 79 1013.1
20260505031219 7 22 0.0 0.0 0.00 0.00 0.00 79 1012.9
20260505030719 7 22 0.0 0.0 0.00 0.00 0.00 79 1012.9
20260505030218 7 22 0.0 0.0 0.00 0.00 0.00 79 1013.0
20260505025718 7 22 0.0 0.0 0.00 0.00 0.00 79 1012.9
20260505025218 7 22 0.0 0.0 0.00 0.00 0.00 78 1012.9
20260505024717 7 22 0.0 0.0 0.00 0.00 0.00 78 1013.0
20260505024217 7 22 0.0 0.0 0.00 0.00 0.00 78 1013.0
20260505023717 7 22 0.0 0.0 0.00 0.00 0.00 77 1012.9
20260505023217 7 22 0.0 0.0 0.00 0.00 0.00 78 1013.0
20260505022716 7 22 0.0 0.0 0.00 0.00 0.00 77 1013.0
20260505022216 7 22 0.0 0.0 0.00 0.00 0.00 77 1013.1
20260505021716 7 22 0.0 0.0 0.00 0.00 0.00 77 1012.9
20260505021215 7 22 0.0 1.6 0.00 0.00 0.00 76 1012.9
20260505020715 7 45 0.0 1.6 0.00 0.00 0.00 76 1012.8
20260505020215 8 45 0.0 0.0 0.00 0.00 0.00 76 1013.1
20260505015714 8 45 0.0 1.6 0.00 0.00 0.00 76 1013.0
20260505015214 8 45 0.0 0.0 0.00 0.00 0.00 76 1013.0
20260505014714 8 45 0.0 0.0 0.00 0.00 0.00 77 1013.0
20260505014214 8 45 0.0 1.6 0.00 0.00 0.00 77 1012.9
20260505013713 8 45 1.6 1.6 0.00 0.00 0.00 77 1012.8
20260505013213 8 22 0.0 0.0 0.00 0.00 0.00 76 1012.9
20260505012713 8 22 0.0 0.0 0.00 0.00 0.00 76 1012.8
20260505012212 8 22 0.0 0.0 0.00 0.00 0.00 76 1012.8
20260505011712 8 22 0.0 0.0 0.00 0.00 0.00 76 1012.8
20260505011212 8 22 0.0 1.6 0.00 0.00 0.00 77 1012.6
20260505010712 8 22 0.0 1.6 0.00 0.00 0.00 76 1012.7
20260505010211 8 22 0.0 0.0 0.00 0.00 0.00 76 1012.6
20260505005711 8 22 0.0 0.0 0.00 0.00 0.00 76 1012.7
20260505005211 8 22 0.0 0.0 0.00 0.00 0.00 76 1012.7
20260505004710 8 22 0.0 3.2 0.00 0.00 0.00 77 1012.6
20260505004210 8 22 3.2 3.2 0.00 0.00 0.00 77 1012.7
20260505003710 8 22 0.0 1.6 0.00 0.00 0.00 76 1012.6
20260505003209 8 22 0.0 0.0 0.00 0.00 0.00 76 1012.7
20260505002709 8 22 0.0 0.0 0.00 0.00 0.00 76 1012.5
20260505002209 8 22 0.0 3.2 0.00 0.00 0.00 76 1012.6
20260505001709 8 0 0.0 0.0 0.00 0.00 0.00 75 1012.5
20260505001208 8 0 0.0 0.0 0.00 0.00 0.00 75 1012.4
20260505000708 8 22 0.0 0.0 0.00 0.00 0.00 75 1012.5
20260505000208 8 22 0.0 0.0 0.00 0.00 0.00 75 1012.5
20260504235707 8 22 0.0 1.6 0.00 0.00 0.00 75 1012.5
20260504235207 9 22 0.0 0.0 0.00 0.00 0.00 74 1012.4
20260504234707 9 22 0.0 0.0 0.00 0.00 0.00 74 1012.4
20260504234207 9 22 0.0 0.0 0.00 0.00 0.00 74 1012.4
20260504233706 9 22 0.0 0.0 0.00 0.00 0.00 74 1012.4
20260504233206 9 22 0.0 3.2 0.00 0.00 0.00 74 1012.5
20260504232706 9 22 3.2 3.2 0.00 0.00 0.00 74 1012.5
20260504232205 9 112 0.0 1.6 0.00 0.00 0.00 73 1012.5
20260504231705 10 112 0.0 0.0 0.00 0.00 0.00 73 1012.4
20260504231205 10 112 0.0 0.0 0.00 0.00 0.00 72 1012.6
20260504230705 10 112 0.0 0.0 0.00 0.00 0.00 72 1012.5
20260504230204 10 112 0.0 0.0 0.00 0.00 0.00 72 1012.6
20260504225704 10 112 0.0 0.0 0.00 0.00 0.00 71 1012.6
20260504225204 10 112 0.0 0.0 0.00 0.00 0.00 71 1012.6
20260504224703 10 112 0.0 0.0 0.00 0.00 0.00 72 1012.5
20260504224203 10 112 0.0 1.6 0.00 0.00 0.00 71 1012.6
20260504223703 10 112 0.0 0.0 0.00 0.00 0.00 69 1012.5
20260504223202 10 112 0.0 0.0 0.00 0.00 0.00 69 1012.5
20260504222702 10 112 0.0 0.0 0.00 0.00 0.00 69 1012.5
20260504222202 11 112 0.0 0.0 0.00 0.00 0.00 68 1012.5
20260504221702 11 112 0.0 0.0 0.00 0.00 0.00 67 1012.5
20260504221201 11 112 0.0 0.0 0.00 0.00 0.00 67 1012.5
20260504220701 11 112 0.0 0.0 0.00 0.00 0.00 66 1012.5
20260504220201 11 112 0.0 0.0 0.00 0.00 0.00 66 1012.4
20260504215700 11 112 0.0 0.0 0.00 0.00 0.00 65 1012.5
20260504215200 11 112 0.0 0.0 0.00 0.00 0.00 65 1012.4
20260504214700 11 112 0.0 0.0 0.00 0.00 0.00 66 1012.5
20260504214200 11 112 0.0 1.6 0.00 0.00 0.00 66 1012.4
20260504213659 12 112 0.0 0.0 0.00 0.00 0.00 66 1012.4
20260504213159 12 112 0.0 0.0 0.00 0.00 0.00 65 1012.4
20260504212659 12 112 0.0 0.0 0.00 0.00 0.00 65 1012.5
20260504212158 12 112 0.0 0.0 0.00 0.00 0.00 65 1012.4
20260504211658 12 112 0.0 1.6 0.00 0.00 0.00 66 1012.4
20260504211158 12 112 1.6 1.6 0.00 0.00 0.00 65 1012.4
20260504210657 12 112 0.0 0.0 0.00 0.00 0.00 66 1012.4
20260504210157 12 112 0.0 0.0 0.00 0.00 0.00 66 1012.4
20260504205657 12 112 0.0 0.0 0.00 0.00 0.00 66 1012.4
20260504205157 12 112 0.0 0.0 0.00 0.00 0.00 67 1012.4
20260504204656 12 112 0.0 1.6 0.00 0.00 0.00 67 1012.3
20260504204156 12 112 1.6 1.6 0.00 0.00 0.00 67 1012.3
20260504203656 12 112 0.0 0.0 0.00 0.00 0.00 67 1012.3
20260504203155 12 112 0.0 0.0 0.00 0.00 0.00 68 1012.3
20260504202655 12 112 0.0 0.0 0.00 0.00 0.00 68 1012.4
20260504202155 12 112 0.0 0.0 0.00 0.00 0.00 67 1012.3
20260504201655 12 112 0.0 0.0 0.00 0.00 0.00 66 1012.3
20260504201154 13 112 0.0 1.6 0.00 0.00 0.00 65 1012.2
20260504200654 13 112 0.0 0.0 0.00 0.00 0.00 64 1012.2
20260504200154 13 112 0.0 0.0 0.00 0.00 0.00 64 1012.2
20260504195653 13 112 0.0 0.0 0.00 0.00 0.00 64 1012.2
20260504195153 13 112 0.0 0.0 0.00 0.00 0.00 63 1012.1
20260504194653 13 112 0.0 0.0 0.00 0.00 0.00 63 1012.2
20260504194152 13 112 0.0 0.0 0.00 0.00 0.00 64 1012.2
20260504193652 13 112 0.0 0.0 0.00 0.00 0.00 63 1012.1
20260504193152 14 112 0.0 0.0 0.00 0.00 0.00 63 1012.1
20260504192652 14 112 0.0 1.6 0.00 0.00 0.00 63 1012.1
20260504192151 14 112 0.0 3.2 0.00 0.00 0.00 62 1012.1
20260504191651 14 112 0.0 1.6 0.00 0.00 0.00 62 1012.1
20260504191151 15 112 0.0 0.0 0.00 0.00 0.00 61 1012.1
20260504190650 15 112 0.0 3.2 0.00 0.00 0.00 61 1012.1
20260504190150 15 112 0.0 0.0 0.00 0.00 0.00 60 1012.2
20260504185650 15 112 0.0 1.6 0.00 0.00 0.00 60 1012.2
20260504185150 15 112 0.0 0.0 0.00 0.00 0.00 59 1012.1
20260504184649 15 112 0.0 1.6 0.00 0.00 0.00 60 1012.2
20260504184149 15 112 1.6 3.2 0.00 0.00 0.00 59 1012.0
20260504183649 15 112 0.0 0.0 0.00 0.00 0.00 59 1012.1
20260504183148 16 112 0.0 1.6 0.00 0.00 0.00 59 1012.0
20260504182648 16 112 0.0 0.0 0.00 0.00 0.00 58 1011.9
20260504182148 16 112 0.0 3.2 0.00 0.00 0.00 59 1011.9
20260504181647 16 112 1.6 3.2 0.00 0.00 0.00 59 1012.0
20260504181147 16 112 0.0 4.8 0.00 0.00 0.00 58 1011.8
20260504180647 16 112 4.8 4.8 0.00 0.00 0.00 58 1011.8
20260504180147 16 90 0.0 0.0 0.00 0.00 0.00 59 1011.7
20260504175646 16 90 0.0 4.8 0.00 0.00 0.00 57 1011.6
20260504175146 17 90 3.2 3.2 0.00 0.00 0.00 57 1011.6
20260504174646 17 90 0.0 1.6 0.00 0.00 0.00 56 1011.5
20260504174147 17 90 0.0 4.8 0.00 0.00 0.00 57 1011.5
20260504173645 17 90 3.2 3.2 0.00 0.00 0.00 56 1011.5
20260504173145 17 90 0.0 3.2 0.00 0.00 0.00 55 1011.5
20260504172645 17 90 0.0 4.8 0.00 0.00 0.00 55 1011.4
20260504172145 18 90 0.0 1.6 0.00 0.00 0.00 55 1011.5
20260504171644 18 90 0.0 3.2 0.00 0.00 0.00 54 1011.4
20260504171144 18 90 3.2 4.8 0.00 0.00 0.00 53 1011.4
20260504170643 18 67 0.0 0.0 0.00 0.00 0.00 53 1011.3
20260504170143 18 67 0.0 1.6 0.00 0.00 0.00 52 1011.3
20260504160140 20 157 0.0 1.6 0.00 0.00 0.00 51 1010.9
20260504151137 22 0 0.0 0.0 0.00 0.00 0.00 50 1010.9
20260504150636 21 0 0.0 0.0 0.00 0.00 0.00 53 1010.9
20260504150136 20 0 0.0 0.0 0.00 0.00 0.00 56 1010.9
20260504141133 23 292 0.0 4.8 0.00 0.00 0.00 40 1011.4
20260504140633 23 292 0.0 3.2 0.00 0.00 0.00 41 1011.4
20260504140133 23 292 0.0 6.4 0.00 0.00 0.00 41 1011.4